• In Moldova, Republic
  • List of Countries
  • For 7 days
  • Water Temperature
  • Satellite Maps
  • Weather Map
  • Weather Widgets
  • user-avatar
    Login

    Hourly Weather Klagenfurt

    Today, 20 October, Friday

    Time Temperature Precipitation Wind Pressure Humidity
    00:00 +8°C° 0 mm 1 mps 690 mmHg 83%
    01:00 +8°C° 0 mm 1 mps 690 mmHg 78%
    02:00 +8°C° 0 mm 1 mps 690 mmHg 79%
    03:00 +8°C° 0 mm 1 mps 690 mmHg 80%
    04:00 +7°C° 0 mm 1 mps 690 mmHg 81%
    05:00 +7°C° 0 mm 1 mps 690 mmHg 81%
    06:00 +7°C° 0 mm 1 mps 690 mmHg 81%
    07:00 +7°C° 0 mm 1 mps 690 mmHg 81%
    08:00 +10°C° 0 mm 1 mps 690 mmHg 73%
    09:00 +12°C° 0 mm 1 mps 691 mmHg 65%
    10:00 +15°C° 0 mm 1 mps 691 mmHg 57%
    11:00 +16°C° 0 mm 2 mps 692 mmHg 55%
    12:00 +17°C° 0 mm 2 mps 692 mmHg 52%
    13:00 +18°C° 0 mm 2 mps 692 mmHg 50%
    14:00 +17°C° 0 mm 2 mps 692 mmHg 55%
    15:00 +16°C° 0 mm 1 mps 691 mmHg 61%
    16:00 +15°C° 0 mm 1 mps 691 mmHg 66%
    17:00 +13°C° 0 mm 1 mps 691 mmHg 73%
    18:00 +12°C° 0 mm 1 mps 691 mmHg 80%
    19:00 +10°C° 0 mm 1 mps 691 mmHg 88%
    20:00 +9°C° 0 mm 1 mps 691 mmHg 88%
    21:00 +9°C° 0 mm 1 mps 692 mmHg 88%
    22:00 +8°C° 0 mm 1 mps 692 mmHg 88%
    23:00 +8°C° 0 mm 1 mps 692 mmHg 88%

    Tomorrow, 21 October, Saturday

    Time Temperature Precipitation Wind Pressure Humidity
    00:00 +8°C° 0 mm 1 mps 692 mmHg 87%
    01:00 +8°C° 0 mm 1 mps 692 mmHg 87%
    02:00 +8°C° 0 mm 1 mps 692 mmHg 86%
    03:00 +8°C° 0 mm 1 mps 692 mmHg 86%
    04:00 +8°C° 0 mm 1 mps 691 mmHg 86%
    05:00 +8°C° 0 mm 1 mps 691 mmHg 86%
    06:00 +8°C° 0 mm 1 mps 692 mmHg 86%
    07:00 +8°C° 0 mm 1 mps 692 mmHg 85%
    08:00 +10°C° 0 mm 1 mps 692 mmHg 77%
    09:00 +13°C° 0 mm 1 mps 693 mmHg 68%
    10:00 +16°C° 0 mm 1 mps 693 mmHg 59%
    11:00 +18°C° 0 mm 1 mps 693 mmHg 57%
    12:00 +19°C° 0 mm 1 mps 693 mmHg 54%
    13:00 +20°C° 0 mm 1 mps 693 mmHg 52%
    14:00 +19°C° 0 mm 1 mps 692 mmHg 57%
    15:00 +18°C° 0 mm 1 mps 692 mmHg 63%
    16:00 +16°C° 0 mm 1 mps 692 mmHg 69%
    17:00 +14°C° 0 mm 1 mps 691 mmHg 76%
    18:00 +12°C° 0 mm 1 mps 691 mmHg 83%
    19:00 +11°C° 0 mm 1 mps 691 mmHg 89%
    20:00 +10°C° 0 mm 1 mps 691 mmHg 91%
    21:00 +10°C° 0 mm 1 mps 691 mmHg 92%
    22:00 +10°C° 0 mm 1 mps 690 mmHg 93%
    23:00 +10°C° 0 mm 1 mps 690 mmHg 93%

    Day after tomorrow, 22 October, Sunday

    Time Temperature Precipitation Wind Pressure Humidity
    00:00 +9°C° 0 mm 1 mps 690 mmHg 93%
    01:00 +9°C° 0 mm 1 mps 690 mmHg 94%
    02:00 +9°C° 0 mm 1 mps 690 mmHg 93%
    03:00 +9°C° 0 mm 1 mps 689 mmHg 93%
    04:00 +9°C° 0 mm 1 mps 689 mmHg 93%
    05:00 +9°C° 0 mm 1 mps 689 mmHg 92%
    06:00 +9°C° 0 mm 1 mps 689 mmHg 92%
    07:00 +9°C° 0 mm 1 mps 689 mmHg 91%
    08:00 +10°C° 0.2 mm 1 mps 689 mmHg 88%
    09:00 +11°C° 0.2 mm 1 mps 689 mmHg 84%
    10:00 +12°C° 0.2 mm 0 mps 689 mmHg 81%
    11:00 +12°C° 3.1 mm 1 mps 689 mmHg 85%
    12:00 +11°C° 3.1 mm 1 mps 688 mmHg 89%
    13:00 +11°C° 3.1 mm 1 mps 688 mmHg 94%
    14:00 +10°C° 3.4 mm 1 mps 688 mmHg 94%
    15:00 +9°C° 3.4 mm 2 mps 688 mmHg 95%
    16:00 +8°C° 3.4 mm 2 mps 687 mmHg 95%
    17:00 +8°C° 2.7 mm 2 mps 688 mmHg 95%
    18:00 +7°C° 2.7 mm 2 mps 688 mmHg 95%
    19:00 +7°C° 2.7 mm 2 mps 688 mmHg 95%
    20:00 +6°C° 0.9 mm 2 mps 688 mmHg 94%
    21:00 +6°C° 0.9 mm 2 mps 688 mmHg 93%
    22:00 +6°C° 0.9 mm 2 mps 688 mmHg 92%
    23:00 +6°C° 0.5 mm 2 mps 688 mmHg 93%

    23 October, Monday

    Time Temperature Precipitation Wind Pressure Humidity
    00:00 +6°C° 0.5 mm 1 mps 688 mmHg 93%
    01:00 +6°C° 0.5 mm 1 mps 688 mmHg 93%
    02:00 +6°C° 0.5 mm 1 mps 688 mmHg 93%
    03:00 +6°C° 0.5 mm 1 mps 688 mmHg 93%
    04:00 +5°C° 0.5 mm 1 mps 688 mmHg 93%
    05:00 +5°C° 0.1 mm 1 mps 688 mmHg 92%
    06:00 +5°C° 0.1 mm 1 mps 688 mmHg 91%
    07:00 +5°C° 0.1 mm 1 mps 688 mmHg 91%
    08:00 +6°C° 0 mm 1 mps 688 mmHg 86%
    09:00 +7°C° 0 mm 1 mps 688 mmHg 82%
    10:00 +8°C° 0 mm 1 mps 689 mmHg 77%
    11:00 +9°C° 0 mm 1 mps 689 mmHg 71%
    12:00 +9°C° 0 mm 2 mps 689 mmHg 65%
    13:00 +10°C° 0 mm 2 mps 689 mmHg 58%
    14:00 +11°C° 0 mm 1 mps 689 mmHg 62%
    15:00 +10°C° 0 mm 1 mps 689 mmHg 65%
    16:00 +10°C° 0 mm 1 mps 689 mmHg 68%
    17:00 +8°C° 0 mm 1 mps 689 mmHg 73%
    18:00 +7°C° 0 mm 1 mps 689 mmHg 77%
    19:00 +5°C° 0 mm 1 mps 689 mmHg 81%
    20:00 +5°C° 0 mm 1 mps 689 mmHg 81%
    21:00 +4°C° 0 mm 1 mps 689 mmHg 82%
    22:00 +4°C° 0 mm 1 mps 689 mmHg 82%
    23:00 +4°C° 0 mm 1 mps 689 mmHg 82%

    24 October, Tuesday

    Time Temperature Precipitation Wind Pressure Humidity
    00:00 +4°C° 0 mm 1 mps 689 mmHg 82%
    01:00 +4°C° 0 mm 1 mps 689 mmHg 82%
    02:00 +4°C° 0 mm 1 mps 689 mmHg 82%
    03:00 +4°C° 0 mm 1 mps 689 mmHg 82%
    04:00 +4°C° 0 mm 1 mps 689 mmHg 82%
    05:00 +4°C° 0 mm 1 mps 689 mmHg 82%
    06:00 +4°C° 0 mm 1 mps 689 mmHg 82%
    07:00 +4°C° 0 mm 1 mps 690 mmHg 82%
    08:00 +7°C° 0 mm 1 mps 690 mmHg 75%
    09:00 +9°C° 0 mm 1 mps 691 mmHg 67%
    10:00 +12°C° 0 mm 1 mps 692 mmHg 60%
    11:00 +12°C° 0 mm 2 mps 692 mmHg 57%
    12:00 +13°C° 0 mm 2 mps 692 mmHg 53%
    13:00 +14°C° 0 mm 2 mps 692 mmHg 50%
    14:00 +13°C° 0 mm 2 mps 692 mmHg 55%
    15:00 +13°C° 0 mm 2 mps 692 mmHg 60%
    16:00 +12°C° 0 mm 2 mps 692 mmHg 65%
    17:00 +10°C° 0 mm 1 mps 693 mmHg 70%
    18:00 +8°C° 0 mm 1 mps 693 mmHg 76%
    19:00 +6°C° 0 mm 1 mps 693 mmHg 82%
    20:00 +6°C° 0 mm 1 mps 693 mmHg 83%
    21:00 +6°C° 0 mm 1 mps 694 mmHg 85%
    22:00 +5°C° 0 mm 1 mps 694 mmHg 87%
    23:00 +5°C° 0 mm 1 mps 694 mmHg 88%

    25 October, Wednesday

    Time Temperature Precipitation Wind Pressure Humidity
    00:00 +5°C° 0 mm 1 mps 694 mmHg 88%
    01:00 +4°C° 0 mm 1 mps 695 mmHg 89%
    02:00 +4°C° 0 mm 1 mps 695 mmHg 90%
    03:00 +4°C° 0 mm 1 mps 695 mmHg 90%
    04:00 +4°C° 0 mm 1 mps 695 mmHg 90%
    05:00 +4°C° 0 mm 1 mps 695 mmHg 90%
    06:00 +4°C° 0 mm 1 mps 695 mmHg 89%
    07:00 +4°C° 0 mm 1 mps 695 mmHg 88%
    08:00 +6°C° 0 mm 1 mps 696 mmHg 78%
    09:00 +9°C° 0 mm 1 mps 697 mmHg 68%
    10:00 +12°C° 0 mm 1 mps 697 mmHg 58%
    11:00 +13°C° 0 mm 1 mps 697 mmHg 53%
    12:00 +15°C° 0 mm 1 mps 697 mmHg 49%
    13:00 +16°C° 0 mm 1 mps 697 mmHg 44%
    14:00 +15°C° 0 mm 1 mps 697 mmHg 50%
    15:00 +14°C° 0 mm 1 mps 697 mmHg 57%
    16:00 +13°C° 0 mm 1 mps 696 mmHg 63%
    17:00 +11°C° 0 mm 1 mps 697 mmHg 68%
    18:00 +9°C° 0 mm 1 mps 697 mmHg 73%
    19:00 +7°C° 0 mm 1 mps 697 mmHg 77%
    20:00 +7°C° 0 mm 1 mps 697 mmHg 77%
    21:00 +6°C° 0 mm 1 mps 697 mmHg 77%
    22:00 +6°C° 0 mm 1 mps 697 mmHg 77%
    23:00 +6°C° 0 mm 1 mps 697 mmHg 77%
    Show more